x

9440910 - Toke Point, Wa (tokw1) Weather Station

5:30 - Sat 27th Aug 2016 All times are PDT. -7 hours from GMT.

  • Wind
    11mph, 18mph gusts
  • Sea Temp 63°f
  • Luft Temp 58°f
  • Sea Pressure 1012.3mb
  • 9440910 - Toke Point, Wa
  • 9440910 - Toke Point, Wa

More Historic Weather Station data

Upgrade to MSW Pro to gain access to the past 30 days of data for over 8000 Wavebouys and Weather Stations around the globe.

Join Pro

Comparision Forecast

View Surf forecast
   
Sa 08/27 5:30 11 18 mph 1012.3mb 63f 58f
5:24 11 16 mph 1012.3mb 63f 58f
5:18 10 18 mph 1012.3mb 63f 58f
5:12 13 17 mph 1012.2mb 63f 58f
5:06 11 17 mph 1012.2mb 63f 58f
5:00 11 16 mph 1012.2mb 63f 58f
4:54 13 18 mph 1012.2mb 63f 58f
4:48 11 18 mph 1012.2mb 61f 58f
4:42 10 17 mph 1012.2mb 62f 58f
4:36 11 18 mph 1012.1mb 62f 58f
4:30 14 18 mph 1012mb 63f 58f
4:24 13 18 mph 1012.1mb 62f 58f
4:18 14 17 mph 1012.1mb 62f 58f
4:12 11 16 mph 1012.1mb 60f 58f
4:06 11 16 mph 1012.1mb 61f 58f
4:00 11 18 mph 1012mb 63f 58f
3:54 14 17 mph 1011.9mb 61f 58f
3:48 11 16 mph 1011.9mb 60f 58f
3:42 11 16 mph 1011.9mb 62f 58f
3:36 10 16 mph 1012mb 60f 58f
3:30 10 14 mph 1011.9mb 61f 58f
3:24 11 17 mph 1011.8mb 62f 58f
3:18 11 18 mph 1011.9mb 60f 58f
3:12 11 16 mph 1012mb 60f 58f
3:06 11 15 mph 1012mb 60f 58f
3:00 11 15 mph 1012mb 60f 58f
2:54 10 14 mph 1011.9mb 60f 58f
2:48 10 15 mph 1011.9mb 60f 58f
2:42 10 16 mph 1011.9mb 61f 58f
2:36 10 15 mph 1011.9mb 60f 58f
2:30 10 15 mph 1012mb 60f 58f
2:24 9 14 mph 1011.9mb 60f 58f
2:18 9 13 mph 1011.9mb 60f 58f
2:12 8 11 mph 1011.9mb 60f 58f
2:06 7 11 mph 1012mb 60f 58f
2:00 8 13 mph 1012.1mb 60f 58f
1:54 8 13 mph 1012.1mb 60f 58f
1:48 8 11 mph 1012mb 60f 58f
1:42 8 11 mph 1012mb 60f 58f
1:36 8 11 mph 1012mb 60f 58f
1:30 7 11 mph 1011.9mb 60f 58f
1:24 9 13 mph 1011.8mb 60f 58f
1:18 8 10 mph 1011.8mb 60f 59f
1:12 8 11 mph 1011.7mb 60f 58f
1:06 8 10 mph 1011.7mb 60f 58f
1:00 8 11 mph 1011.7mb 60f 58f
12:54 8 11 mph 1011.7mb 60f 58f
12:48 8 10 mph 1011.6mb 60f 58f
12:42 8 13 mph 1011.6mb 59f 58f
12:36 9 11 mph 1011.6mb 60f 58f
12:30 8 11 mph 1011.6mb 60f 58f
12:24 9 11 mph 1011.6mb 60f 58f
12:18 7 10 mph 1011.6mb 59f 58f
12:12 6 8 mph 1011.6mb 59f 57f
12:06 6 7 mph 1011.5mb 59f 57f
12:00 5 7 mph 1011.5mb 60f 57f
Fr 08/26 11:54 5 7 mph 1011.5mb 58f 57f
11:48 6 8 mph 1011.5mb 59f 57f
11:42 7 9 mph 1011.3mb 58f 56f
11:36 7 8 mph 1011.3mb 57f 56f
11:30 6 7 mph 1011.3mb 57f 55f
11:24 6 7 mph 1011.2mb 57f 55f
11:18 6 7 mph 1011.2mb 58f 55f
11:12 5 7 mph 1011.3mb 55f 55f
11:06 6 8 mph 1011.3mb 55f 56f
11:00 6 7 mph 1011.3mb 56f 56f
10:54 6 8 mph 1011.4mb 56f 56f
10:48 7 9 mph 1011.4mb 55f 56f
10:42 6 8 mph 1011.3mb 55f 56f
10:36 7 8 mph 1011.3mb 55f 57f
10:30 6 7 mph 1011.2mb 55f 58f
10:24 6 7 mph 1011.2mb 56f 58f
10:18 6 8 mph 1011.3mb 56f 58f
10:12 6 8 mph 1011.3mb 56f 57f
10:06 5 7 mph 1011.3mb 57f 57f
10:00 6 9 mph 1011.3mb 56f 57f
9:54 6 9 mph 1011.3mb 57f 57f
9:48 3 5 mph 1011.3mb 56f 60f
9:42 5
mph
1011.4mb 56f 60f
9:36 3 5 mph 1011.3mb 56f 61f
9:30 5 6 mph 1011.3mb 55f 60f
9:24 5 6 mph 1011.4mb 55f 61f
9:18 5 6 mph 1011.4mb 55f 61f
9:12 5 6 mph 1011.4mb 55f 61f
9:06 3 6 mph 1011.3mb 55f 61f
9:00 3 6 mph 1011.3mb 55f 61f
8:54 5 6 mph 1011.3mb 55f 63f
8:48 3 8 mph 1011.2mb 55f 65f
8:42 7 9 mph 1011.2mb 55f 66f
8:36 8 9 mph 1011.2mb 55f 67f
8:30 7 8 mph 1011.1mb 55f 67f
8:24 7 8 mph 1011mb 55f 68f
8:18 6 9 mph 1011mb 55f 68f
8:12 9 10 mph 1010.9mb 55f 71f
8:06 8 9 mph 1010.9mb 55f 71f
8:00 5 6 mph 1010.9mb 55f 69f
7:54 5 8 mph 1010.8mb 56f 68f
7:48 5 6 mph 1010.8mb 56f 70f
7:42 2 5 mph 1010.7mb 56f 71f
7:36 1 6 mph 1010.7mb 57f 73f
7:30 6 7 mph 1010.7mb 58f 75f
7:24 7 9 mph 1010.6mb 58f 76f
7:18  -  mph 1010.6mb 58f 76f
7:12  -  mph 1010.6mb 58f 76f
7:06  -  mph 1010.7mb 58f 78f
7:00  -  mph 1010.7mb 58f 77f
6:54  -  mph 1010.7mb 58f 80f
6:48  -  3 mph 1010.7mb 58f 79f
6:42 2 6 mph 1010.7mb 59f 78f
6:36 6
mph
1010.7mb 59f 77f
6:30 5 8 mph 1010.7mb 59f 77f
6:24 7
mph
1010.8mb 59f 77f
6:18  -  mph - 59f 78f
6:12  -  mph - 59f 78f
6:06  -  mph - 59f 79f
6:00 8 9 mph - 59f 79f
5:54 8 10 mph - 59f 80f
5:48 9 13 mph 1010.8mb 60f 79f
5:42 10 14 mph 1010.8mb 60f 79f
5:36 11 13 mph 1010.8mb 60f 79f
5:30 11 13 mph - 61f 80f
5:24 11 14 mph - 61f 79f
5:18  -  mph 1011.1mb 60f 79f
5:12  -  mph 1011.1mb 61f 80f
5:06  -  mph 1011.1mb 61f 80f
5:00 10 13 mph 1011.2mb 61f 80f
4:54 10 13 mph 1011.2mb 62f 80f
4:48  -  mph 1011.2mb 62f -
4:42  -  mph 1011.3mb 62f -
4:36  -  mph 1011.3mb 62f -
4:30 13 15 mph 1011.3mb 62f 80f
4:24 11 14 mph 1011.4mb 63f 80f
4:18 11 14 mph 1011.4mb 63f 80f
4:12 11 15 mph 1011.4mb 63f 80f
4:06 13 15 mph 1011.5mb 64f 80f
4:00 13 15 mph 1011.6mb 64f 81f
3:54 9 13 mph 1011.6mb 64f 81f
3:48 11 15 mph 1011.6mb 63f 80f
3:42 14 15 mph 1011.7mb 64f 80f
3:36 14 16 mph 1011.7mb 63f 80f
3:30 14 16 mph - 63f 81f
3:24 13 16 mph - 63f 82f
3:18 14 17 mph - 63f 83f
3:12  -  mph 1011.8mb 63f 84f
3:06  -  mph 1011.8mb 63f 84f
3:00  -  mph 1011.8mb 64f 85f
2:54  -  mph 1011.9mb 63f 85f
2:48 14 16 mph 1011.9mb 63f 85f
2:42 13 16 mph 1011.9mb 63f 85f
2:36 14 17 mph 1012mb 63f 85f
2:30 15 17 mph 1012mb 63f 85f
2:24 14 16 mph 1012mb 63f 86f
2:18 9 14 mph 1012.1mb 63f 86f
2:12 9 13 mph 1012.1mb 63f 86f
2:06 9 13 mph 1012mb 63f 86f
2:00 9 13 mph 1012.1mb 62f 86f
1:54 8 11 mph 1012.1mb 63f 86f
1:48 8 11 mph 1012.2mb 62f 85f
1:42 8 11 mph 1012.2mb 62f 85f
1:36 10 11 mph 1012.3mb 62f 85f
1:30 8 9 mph 1012.3mb 62f 85f
1:24 7 9 mph 1012.3mb 62f 85f
1:18 7 8 mph 1012.3mb 62f 85f
1:12 5 6 mph 1012.4mb 63f 86f
1:06 6 7 mph 1012.4mb 62f 85f
1:00 5 7 mph 1012.5mb 62f 85f
12:54 5 6 mph 1012.5mb 62f 85f
12:48  -  1 mph 1012.6mb 61f 86f
12:42  -  1 mph 1012.6mb 62f 85f
12:36 1 2 mph 1012.6mb 61f 83f
12:30 2
mph
1012.6mb 61f 83f
12:24 2
mph
1012.6mb 62f 82f
12:18 2 3 mph 1012.6mb 62f 82f
12:12 3
mph
1012.7mb 59f 81f
12:06 3
mph
1012.7mb 60f 81f
12:00 3 5 mph 1012.7mb 61f 80f
11:54 5
mph
1012.7mb 61f 80f
11:48 5
mph
1012.7mb 60f 79f
11:42 5
mph
1012.7mb 59f 77f
11:36 3 5 mph 1012.7mb 59f 76f
11:30 3
mph
1012.7mb 59f 76f
11:24 3
mph
1012.8mb 60f 75f
11:18 2
mph
1012.8mb 61f 74f
11:12 2
mph
1012.8mb 60f 75f
11:06 2
mph
1012.9mb 60f 74f
11:00 1 2 mph 1012.9mb 59f 73f
10:54 1 3 mph 1012.9mb 60f 71f
10:48 3 5 mph 1013mb 59f 70f
10:42 3 6 mph 1013mb 59f 69f
10:36 5 6 mph 1013mb 59f 69f
10:30 5 6 mph 1013.1mb 58f 68f
10:24 5 6 mph 1013.2mb 59f 68f
10:18 6
mph
1013.2mb 57f 67f
10:12 6 7 mph 1013.2mb 58f 67f
10:06 7
mph
1013.3mb 58f 66f
10:00 7
mph
1013.3mb 59f 65f
9:54 6
mph
1013.4mb 59f 64f
9:48 5 6 mph 1013.4mb 58f 64f
9:42 6
mph
1013.4mb 58f 64f
9:36 5 6 mph 1013.4mb 59f 63f
9:30 6 7 mph 1013.4mb 57f 63f
9:24 7 8 mph 1013.3mb 57f 62f
9:18 7
mph
1013.4mb 57f 62f
9:12 6 7 mph 1013.4mb 57f 62f
9:06 7 8 mph 1013.4mb 57f 62f
9:00 8 9 mph 1013.4mb 57f 62f
8:54 8 9 mph 1013.4mb 57f 61f
8:48 8
mph
1013.5mb 57f 61f
8:42 7 9 mph 1013.5mb 57f 61f
8:36 8 9 mph 1013.4mb 57f 61f
8:30 9
mph
1013.4mb 58f 61f
8:24 9
mph
1013.5mb 58f 61f
8:18 8 9 mph 1013.5mb 58f 61f
8:12 9 10 mph 1013.5mb 59f 60f
8:06 9 11 mph 1013.5mb 59f 60f
8:00 11 13 mph 1013.4mb 59f 60f
7:54 9
mph
1013.4mb 60f 60f
7:48 8 9 mph 1013.4mb 60f 60f
7:42 8
mph
1013.4mb 60f 60f
7:36 8 9 mph 1013.4mb 61f 60f
7:30 6 7 mph 1013.4mb 61f 60f
7:24 3 5 mph 1013.4mb 61f 59f
7:18 5
mph
1013.4mb 61f 59f
7:12 5 6 mph 1013.3mb 62f 60f
7:06 6 7 mph 1013.3mb 61f 59f
7:00 7
mph
1013.3mb 61f 59f
6:54 7
mph
1013.3mb 61f 60f
6:48 7 8 mph 1013.3mb 61f 59f
6:42 6 7 mph 1013.4mb 62f 59f
6:36 6 8 mph 1013.3mb 62f 59f
6:30 7 8 mph 1013.2mb 62f 60f
6:24 7 8 mph 1013.2mb 62f 59f
6:18 6 7 mph 1013.2mb 62f 60f
6:12 7
mph
1013.1mb 62f 60f
6:06 6 7 mph 1013.1mb 62f 60f
6:00 3 6 mph 1013.1mb 62f 59f
5:54 5 6 mph 1013.1mb 63f 59f
5:48 7 8 mph 1013.1mb 63f 60f
5:42 6 7 mph 1013.1mb 63f 60f
5:36 6
mph
1013.1mb 63f 59f
5:30 5 6 mph 1013mb 64f 59f
5:24 3 6 mph 1013.1mb 64f 60f
5:18 5 6 mph 1013.1mb 64f 59f
5:12 3 5 mph 1013mb 63f 59f
5:06 2 5 mph 1013mb 63f 58f
5:00 3 5 mph 1013.2mb 63f 58f
4:54 5 7 mph 1013.2mb 63f 58f
4:48 7 8 mph 1013.2mb 63f 60f
4:42 6 8 mph 1013.2mb 63f 60f
4:36 6 7 mph 1013.2mb 63f 60f
4:30 6
mph
1013.2mb 63f 60f
4:24 5 6 mph 1013.2mb 63f 60f
4:18 6
mph
1013.4mb 63f 60f
4:12 3 5 mph 1013.3mb 63f 60f
4:06 2 3 mph 1013.3mb 63f 60f
4:00 1 3 mph 1013.3mb 63f 59f
3:54 3
mph
1013.3mb 63f 58f
3:48 1 5 mph 1013.2mb 63f 58f
3:42 3 8 mph 1013.3mb 64f 57f
3:36 7 8 mph 1013.3mb 63f 58f
3:30 5 6 mph 1013.4mb 63f 58f
3:24 7 9 mph 1013.4mb 63f 58f
3:18 5 7 mph 1013.4mb 63f 58f
3:12 5 7 mph 1013.4mb 63f 58f
3:06 7 8 mph 1013.4mb 63f 58f
3:00 7 8 mph 1013.5mb 63f 58f
2:54 6 7 mph 1013.5mb 63f 59f
2:48 6
mph
1013.6mb 62f 59f
2:42 6
mph
1013.6mb 63f 59f
2:36 6
mph
1013.7mb 62f 60f
2:30 6
mph
1013.7mb 63f 60f
2:24 5 6 mph 1013.7mb 62f 60f
2:18 5 6 mph 1013.8mb 62f 60f
2:12 3 5 mph 1013.7mb 63f 60f
2:06 5 7 mph 1013.8mb 62f 60f
2:00 6 7 mph 1014mb 62f 60f
1:54 6 7 mph 1014mb 63f 60f
1:48 7
mph
1014.1mb 62f 60f
1:42 5 6 mph 1014.1mb 64f 60f
1:36 6
mph
1014.1mb 62f 59f
1:30 5 6 mph 1014mb 62f 59f
1:24 5 6 mph 1014mb 62f 59f
1:18 6
mph
1014mb 62f 60f
1:12 3 5 mph 1014.1mb 62f 60f
1:06 3 5 mph 1014.1mb 62f 60f
1:00 5 6 mph 1014.1mb 62f 61f
12:54 5 6 mph 1014.1mb 62f 61f
12:48 3
mph
1014.1mb 62f 60f
12:42 3 7 mph 1014.1mb 62f 60f
12:36 7 8 mph 1014.1mb 62f 60f
12:30 7 9 mph 1014.1mb 62f 61f
12:24 8
mph
1014.1mb 62f 62f
12:18 3
mph
1014mb 63f 62f
12:12 3 5 mph 1014mb 62f 62f
12:06 2 3 mph 1014mb 62f 63f
12:00  -  3 mph 1014mb 62f 63f
Do 08/25 11:54 2 3 mph 1014mb 61f 63f
11:48 3 5 mph 1014mb 61f -
11:42 2 3 mph 1014.2mb 61f -
11:36 3 8 mph 1014.3mb 61f -
11:30 7 8 mph 1014.3mb 61f 63f
11:24 7
mph
1014.4mb 61f 64f
11:18 6 7 mph 1014.4mb 60f 64f
11:12 6 8 mph 1014.4mb 60f 64f
11:06 7 9 mph 1014.5mb 62f 64f
11:00 6 9 mph 1014.5mb 61f 64f
10:54 9 10 mph 1014.5mb 61f 65f
10:48 3 5 mph 1014.5mb 61f -
10:42 3 5 mph 1014.4mb 61f -
10:36 3 6 mph 1014.3mb 61f -
10:30 7 8 mph 1014.5mb 60f 66f
10:24 8 9 mph 1014.6mb 62f 67f
10:18 5 7 mph 1014.6mb 61f 67f
10:12 1 6 mph 1014.7mb 61f 67f
10:06 6 8 mph 1014.7mb 60f 68f
10:00 7 8 mph 1014.7mb 58f 69f
9:54 6 7 mph 1014.7mb 62f 69f
9:48 6 8 mph 1014.8mb 60f 70f
9:42 7 8 mph 1014.8mb 60f 70f
9:36 6 8 mph 1014.8mb 57f 70f
9:30 3 5 mph 1014.8mb 57f 70f
9:24 2 3 mph 1014.8mb 59f 70f
9:18  -  2 mph 1014.7mb 58f 70f
9:12  -  3 mph 1014.7mb 59f 69f
9:06 1 2 mph 1014.7mb 59f 70f
9:00  -  2 mph 1014.5mb 58f 69f
8:54 1 3 mph 1014.5mb 57f 69f
8:48 1 3 mph 1014.4mb 56f 73f
8:42  -  2 mph 1014.4mb 55f 71f
8:36 2 3 mph 1014.5mb 55f 71f
8:30  -  6 mph 1014.5mb 55f 71f
8:24 2 5 mph 1014.5mb 55f 71f
8:18 6 10 mph 1014.4mb 55f 71f
8:12 11 15 mph 1014.4mb 55f 72f
8:06 14 16 mph 1014.3mb 55f 73f
8:00 14 16 mph 1014.3mb 55f 73f
7:54 15 17 mph 1014.4mb 55f 73f
7:48 16 17 mph 1014.4mb 56f 72f
7:42 17
mph
1014.4mb 55f 73f
7:36 16 17 mph 1014.4mb 56f 72f
7:30 16 17 mph 1014.4mb 56f 73f
7:24 17
mph
1014.4mb 56f 72f
7:18  -  mph 1014.4mb 56f 72f
7:12  -  mph 1014.4mb 56f 72f
7:06  -  mph 1014.5mb 56f 73f
7:00  -  mph 1014.4mb 56f 73f
6:54  -  mph 1014.4mb 56f 73f
6:48  -  mph 1014.4mb 56f 73f
6:42  -  mph 1014.4mb 57f 74f
6:36  -  mph 1014.4mb 57f 74f
6:30 18 20 mph 1014.4mb 57f 76f
6:24 17 21 mph 1014.5mb 58f 76f
6:18 20 21 mph 1014.5mb 58f 77f
6:12  -  mph 1014.5mb 58f 76f
6:06  -  mph 1014.5mb 58f 76f
6:00 17 20 mph 1014.6mb 58f 77f
5:54 18 21 mph 1014.6mb 58f 78f
5:48  -  mph 1014.6mb 58f 78f
5:42  -  mph 1014.7mb 58f 78f
5:36  -  mph 1014.6mb 59f 79f
5:30 18 20 mph 1014.7mb 59f 80f
5:24 17 20 mph 1014.8mb 59f 79f
5:18  -  mph 1014.9mb 59f 79f
5:12  -  mph 1014.9mb 59f 80f
5:06  -  mph 1015mb 59f 78f
5:00  -  mph 1015.1mb 59f 79f
4:54  -  mph 1015.1mb 59f 80f
4:48  -  mph 1015.1mb 60f 78f
4:42 17 18 mph 1015.2mb 60f -
4:36 16 18 mph 1015.2mb 60f -
4:30 18 20 mph 1015.3mb 60f 79f
4:24 17 18 mph 1015.3mb 60f 80f
4:18  -  mph 1015.4mb 60f 81f
4:12  -  mph 1015.4mb 62f 82f
4:06  -  mph 1015.5mb 60f 82f
4:00  -  mph 1015.6mb 61f 81f
3:54  -  mph 1015.8mb 62f 82f
3:48  -  mph - 61f -
3:42  -  mph - 62f -
3:36  -  mph - 62f -
3:30 16 18 mph 1015.9mb 64f 85f
3:24 13 17 mph 1015.9mb 63f 84f
3:18  -  mph 1015.9mb 63f 85f
3:12  -  mph 1015.9mb 63f 84f
3:06  -  mph 1016mb 63f 86f
3:00 15 21 mph 1016mb 63f 86f
2:54 10 17 mph 1016.1mb 63f 86f
2:48 13 15 mph 1016.1mb 62f 86f
2:42 8 14 mph 1016.2mb 62f 87f
2:36 11 14 mph 1016.3mb 63f 86f
2:30 9 11 mph 1016.3mb 62f 87f
2:24 5 8 mph 1016.5mb 63f 86f
2:18 6 8 mph 1016.6mb 63f 84f
2:12 6 8 mph 1016.7mb 62f 82f
2:06 6 9 mph 1016.8mb 62f 83f
2:00 7 10 mph 1016.8mb 63f 81f
1:54 9 14 mph 1016.9mb 63f 80f
1:48 11 14 mph 1017mb 63f 80f
1:42 10 14 mph 1017mb 63f 81f
1:36 10 14 mph 1017.1mb 64f 81f
1:30 11 15 mph 1017.2mb 63f 80f
1:24 11 14 mph 1017.2mb 63f 81f
1:18 10 13 mph 1017.3mb 62f 81f
1:12 9 11 mph 1017.4mb 62f 82f
1:06 9 11 mph 1017.4mb 62f 82f
1:00 7 8 mph 1017.5mb 62f 82f
12:54 6 9 mph 1017.5mb 62f 82f
12:48 3 7 mph 1017.7mb 62f 83f
12:42 5 7 mph 1017.7mb 62f 82f
12:36 1 2 mph 1017.8mb 62f 84f
12:30 2
mph
1017.8mb 63f 83f
12:24  -  1 mph 1017.9mb 63f 83f
12:18 1 3 mph 1018mb 62f 82f
12:12 2 3 mph 1018mb 62f 81f
12:06 2 3 mph 1018.1mb 62f 80f
12:00 2 3 mph 1018.2mb 61f 80f
11:54 5
mph
1018.2mb 61f 79f
11:48 5
mph
1018.3mb 61f 78f
11:42 5 6 mph 1018.3mb 62f 78f
11:36 5
mph
1018.3mb 62f 77f
11:30 6
mph
1018.4mb 62f 77f
11:24 6 7 mph 1018.5mb 61f 77f
11:18 6 7 mph 1018.5mb 61f 77f
11:12 6 7 mph 1018.5mb 61f 76f
11:06 6
mph
1018.6mb 61f 76f
11:00 6 7 mph 1018.7mb 61f 75f
10:54 6 7 mph 1018.8mb 61f 74f
10:48 6 7 mph 1018.8mb 61f 72f
10:42 6 7 mph 1018.9mb 61f 72f
10:36 7 8 mph 1018.9mb 61f 73f
10:30 8 9 mph 1018.9mb 60f 74f
10:24 9
mph
1019mb 61f 73f
10:18 9 10 mph 1019mb 61f 73f
10:12 10 11 mph 1019mb 60f 73f
10:06 11
mph
1019mb 60f 73f
10:00 10 11 mph 1019mb 59f 73f
9:54 10 11 mph 1019mb 60f 73f
9:48 11 13 mph 1019.1mb 60f 72f
9:42 10
mph
1019.1mb 60f 70f
9:36 10
mph
1019.2mb 61f 68f
9:30 9 10 mph 1019.3mb 60f 68f
9:24 9
mph
1019.3mb 59f 66f
9:18 9
mph
1019.4mb 60f 67f
9:12 9 10 mph 1019.4mb 60f 66f
9:06 10 11 mph 1019.4mb 59f 66f
9:00 10
mph
1019.4mb 60f 63f
8:54 9 10 mph 1019.4mb 59f 62f
8:48 9
mph
1019.5mb 58f 62f
8:42 9 10 mph 1019.5mb 59f 62f
8:36 9 10 mph 1019.6mb 59f 62f
8:30 10 11 mph 1019.5mb 59f 62f
8:24 10 13 mph 1019.5mb 59f 62f
8:18 11 13 mph 1019.5mb 59f 62f
8:12 11 14 mph 1019.4mb 58f 62f
8:06 13 14 mph 1019.4mb 58f 61f
8:00 11 13 mph 1019.3mb 58f 61f
7:54 8 9 mph 1019.3mb 58f 62f
7:48 8 9 mph 1019.3mb 58f 62f
7:42 9 10 mph 1019.3mb 58f 62f
7:36 9 10 mph 1019.4mb 59f 61f
7:30 10 11 mph 1019.3mb 59f 61f
7:24 10 11 mph 1019.4mb 59f 61f
7:18 9 10 mph 1019.4mb 59f 61f
7:12 9 10 mph 1019.4mb 59f 61f
7:06 9
mph
1019.4mb 59f 61f
7:00 9
mph
1019.4mb 59f 61f
6:54 3 11 mph 1019.4mb 60f 61f
6:48 10 11 mph 1019.3mb 60f 61f
6:42 10 11 mph 1019.4mb 60f 61f
6:36 9
mph
1019.3mb 60f 61f
6:30 7 8 mph 1019.3mb 60f 61f
6:24 6 7 mph 1019.2mb 60f 63f
6:18 6 7 mph 1019.2mb 61f 62f
6:12 5
mph
1019.1mb 61f 63f
6:06 5 6 mph 1019.1mb 61f 63f
6:00 6
mph
1019.1mb 61f 64f
5:54 5
mph
1019.1mb 61f 62f
5:48 2 3 mph 1019.1mb 61f 62f
5:42 3 6 mph 1019.1mb 61f 62f
5:36 3 6 mph 1019.1mb 61f 62f
5:30 3 5 mph 1019.1mb 62f 63f
5:24 5 7 mph 1019.1mb 62f 62f
5:18 6 7 mph 1019.1mb 62f 62f
5:12 5 6 mph 1019.2mb 62f 63f
5:06 6
mph
1019.2mb 62f 63f
5:00 5
mph
1019.1mb 62f 64f
4:54 5 6 mph 1019.1mb 62f 63f
4:48 3 6 mph 1019.2mb 62f 63f
4:42 5 7 mph 1019.1mb 62f 64f
4:36 6 7 mph 1019.1mb 63f 63f
4:30 6 7 mph 1019.2mb 63f 63f
4:24 6 8 mph 1019.1mb 63f 64f
4:18 7 9 mph 1019.1mb 63f 65f
4:12 8 9 mph 1019.2mb 63f 66f
4:06 9 10 mph 1019.2mb 63f 66f
4:00 9 11 mph 1019.3mb 63f 66f
3:54 10
mph
1019.3mb 63f 65f
3:48 8 9 mph 1019.3mb 63f 66f
3:42 8 9 mph 1019.3mb 63f 65f
3:36 8 9 mph 1019.3mb 63f 62f
3:30 6 7 mph 1019.4mb 63f 62f
3:24 3 6 mph 1019.4mb 63f 62f
3:18 6 7 mph 1019.4mb 63f 61f
3:12 5 6 mph 1019.4mb 63f 61f
3:06 3 5 mph 1019.4mb 63f 62f
3:00 3 5 mph 1019.4mb 63f 62f
2:54 1 2 mph 1019.5mb 62f 62f
2:48 2 5 mph 1019.5mb 62f 61f
2:42 3 5 mph 1019.4mb 63f 61f
2:36 3
mph
1019.3mb 63f 60f
2:30 2 3 mph 1019.4mb 63f 60f
2:24 2 3 mph 1019.4mb 63f 59f
2:18 2 3 mph 1019.4mb 63f 60f
2:12 2 5 mph 1019.4mb 64f 59f
2:06 3 6 mph 1019.4mb 63f 59f
2:00 3 8 mph 1019.4mb 63f 59f
1:54 6 7 mph 1019.5mb 63f 59f
1:48 6 7 mph 1019.5mb 64f 60f
1:42 2 3 mph 1019.5mb 63f 59f
1:36 1 3 mph 1019.5mb 62f 58f
1:30 2 3 mph 1019.4mb 63f 59f
1:24 1
mph
1019.5mb 62f 59f
1:18  -  2 mph 1019.5mb 62f 58f
1:12 2 3 mph 1019.5mb 63f 58f
1:06 1 3 mph 1019.5mb 62f 59f
1:00 3 5 mph 1019.5mb 62f 60f
12:54 5 6 mph 1019.5mb 62f 61f
12:48 3
mph
1019.5mb 62f 60f
12:42 2 3 mph 1019.6mb 62f 60f
12:36 5
mph
1019.6mb 62f 60f
12:30 5 7 mph 1019.6mb 62f 62f
12:24 6 8 mph 1019.6mb 62f 61f
12:18 7 8 mph 1019.7mb 62f 62f
12:12 8 9 mph 1019.7mb 62f 62f
12:06 8 9 mph 1019.7mb 62f 60f
12:00 7 8 mph 1019.8mb 64f 60f
Mi 08/24 11:54 7 9 mph 1019.8mb 63f 61f
11:48 8 9 mph 1019.8mb 62f -
11:42 7
mph
1019.8mb 62f -
11:36 6
mph
1019.8mb 62f -
11:30 3
mph
1019.8mb 62f 60f
11:24 2 5 mph 1019.9mb 62f 60f
11:18 3 5 mph 1019.9mb 62f 60f
11:12 1 6 mph 1019.9mb 62f 61f
11:06 5 6 mph 1020mb 62f 62f
11:00 1 2 mph 1019.9mb 62f 62f
10:54  -  1 mph 1020mb 62f 62f
10:48  -  2 mph 1020mb 62f 62f
10:42 2 3 mph 1020mb 62f 63f
10:36 2
mph
1020mb 63f 63f
10:30 2
mph
1020mb 61f 63f
10:24 2
mph
1020.1mb 61f 63f
10:18 2 3 mph 1020.1mb 61f 64f
10:12 1 2 mph 1020.1mb 61f 64f
10:06 2
mph
1020.1mb 61f 64f
10:00 3
mph
1020.1mb 61f 64f
9:54 2 3 mph 1020.2mb 61f 65f
9:48 2 3 mph 1020.2mb 61f 65f
9:42 3 6 mph 1020.3mb 62f 65f
9:36 5 6 mph 1020.2mb 61f 65f
9:30 5 7 mph 1020.3mb 60f 65f
9:24 7 8 mph 1020.2mb 60f 66f
9:18 8 9 mph 1020.2mb 61f 66f
9:12 7 9 mph 1020.2mb 60f 66f
9:06 8
mph
1020.1mb 60f 66f
9:00 7 9 mph 1020.2mb 60f 66f
8:54 10 13 mph 1020.1mb 60f 66f
8:48 10 11 mph 1020mb 60f 66f
8:42 5 6 mph 1020.1mb 60f 66f
8:36 6 9 mph 1020mb 60f 68f
8:30 7 8 mph 1019.9mb 59f 68f
8:24  -  2 mph 1020mb 58f 67f
8:18 1 10 mph 1020mb 61f 67f
8:12 10 15 mph 1019.8mb 60f 68f
8:06 13 14 mph 1019.8mb 58f 69f
8:00 9 11 mph 1019.8mb 59f 70f
7:54  -  6 mph 1019.9mb 60f 69f
7:48 6 7 mph 1019.9mb 59f 70f
7:42 3 11 mph 1019.8mb 57f 69f
7:36 11 13 mph 1019.7mb 56f 69f
7:30 11 14 mph 1019.6mb 56f 70f
7:24 14 16 mph 1019.6mb 56f 71f
7:18  -  mph 1019.6mb 56f 72f
7:12  -  mph 1019.6mb 56f 72f
7:06  -  mph 1019.7mb 56f 71f
7:00  -  mph 1019.7mb 56f 71f
6:54  -  mph 1019.7mb 56f 71f
6:48  -  mph - 56f 71f
6:42  -  mph - 56f 73f
6:36  -  mph - 57f 73f
6:30 13 15 mph - 57f 72f
6:24 13 15 mph - 57f 73f
6:18  -  mph 1019.8mb 57f 74f
6:12  -  mph 1019.7mb 57f 76f
6:06  -  mph 1019.8mb 57f 74f
6:00 14 16 mph 1019.8mb 57f 75f
5:54 14 16 mph 1019.8mb 58f 76f
5:48 11 16 mph - 58f 77f
5:42 14 16 mph - 58f 79f
5:36 14 16 mph - 58f 79f
5:30 13 16 mph 1019.8mb 59f 77f
5:24 13 16 mph 1019.8mb 59f 79f
5:18  -  mph - 59f 79f
5:12  -  mph - 58f 79f
5:06  -  mph - 59f 79f
5:00 13 14 mph 1019.9mb 59f 79f
4:54 11 15 mph 1019.9mb 59f 79f
4:48  -  mph 1019.9mb 59f -
4:42  -  mph 1020mb 59f -
4:36  -  mph 1020mb 60f -
4:30 15 18 mph 1020.1mb 59f 80f
4:24 14 18 mph 1020.1mb 60f 80f
4:18  -  mph 1020.2mb 60f 81f
4:12  -  mph 1020.2mb 61f 80f
4:06  -  mph 1020.2mb 61f 80f
4:00  -  mph 1020.2mb 61f 82f
3:54  -  mph 1020.3mb 61f 84f
3:48  -  mph - 61f -
3:42  -  mph - 60f -
3:36  -  mph - 60f -
3:30 3 5 mph 1020.5mb 61f 82f
3:24 5 7 mph 1020.5mb 60f 81f
3:18  -  mph 1020.5mb 61f 81f
3:12  -  mph 1020.6mb 61f 81f
3:06  -  mph 1020.6mb 61f 80f
3:00 5 8 mph 1020.7mb 61f 81f
2:54 6 7 mph 1020.8mb 61f 80f
2:48  -  mph - 61f 80f
2:42  -  mph - 61f 80f
2:36  -  mph - 61f 80f
2:30 6 9 mph 1021.1mb 62f 79f
2:24 7 9 mph 1021.2mb 62f 78f
2:18 7 9 mph 1021.2mb 62f 78f
2:12 8 10 mph 1021.2mb 61f 77f
2:06 8 9 mph 1021.3mb 62f 76f
2:00 8 9 mph 1021.4mb 62f 76f
1:54 8 10 mph 1021.4mb 61f 76f
1:48 8 10 mph 1021.5mb 62f 77f
1:42 8 10 mph 1021.5mb 61f 76f
1:36 7 10 mph 1021.5mb 62f 77f
1:30 9 10 mph 1021.6mb 62f 78f
1:24 7 10 mph 1021.7mb 62f 78f
1:18 7 9 mph 1021.7mb 62f 78f
1:12 7 8 mph 1021.7mb 62f 78f
1:06 5 10 mph 1021.8mb 62f 77f
1:00 7 10 mph 1021.8mb 62f 77f
12:54 2 5 mph 1021.9mb 62f 79f
12:48  -  2 mph 1022mb 61f 80f
12:42  -  3 mph 1022mb 61f 79f
12:36 2 3 mph 1022.1mb 61f 78f
12:30 1 3 mph 1022.2mb 61f 78f
12:24  -  3 mph 1022.3mb 61f 78f
12:18 2 3 mph 1022.4mb 61f 77f
12:12  -  2 mph 1022.4mb 61f 78f
12:06  -  1 mph 1022.4mb 61f 76f
12:00  -  2 mph 1022.5mb 61f 76f
11:54 2 3 mph 1022.5mb 61f 74f
11:48 3 5 mph 1022.6mb 61f 73f
11:42 5
mph
1022.6mb 61f 73f
11:36 3 5 mph 1022.6mb 61f 72f
11:30 2 5 mph 1022.6mb 61f 73f
11:24 5 6 mph 1022.7mb 61f 72f
11:18 5 6 mph 1022.7mb 61f 71f
11:12 5
mph
1022.8mb 60f 71f
11:06 3
mph
1022.8mb 60f 71f
11:00 3 5 mph 1022.8mb 60f 70f
10:54 5 6 mph 1022.9mb 60f 70f
10:48 6 7 mph 1022.9mb 60f 70f
10:42 6 7 mph 1022.9mb 60f 70f
10:36 5
mph
1022.9mb 60f 69f
10:30 3 5 mph 1022.9mb 60f 69f
10:24 3 5 mph 1022.9mb 60f 69f
10:18 5 6 mph 1023mb 60f 68f
10:12 5 6 mph 1023mb 60f 67f
10:06 6
mph
1023mb 60f 67f
10:00 6 7 mph 1023mb 60f 65f
9:54 6
mph
1023mb 60f 65f
9:48 5 6 mph 1023mb 60f 67f
9:42 2 3 mph 1023mb 60f 65f
9:36 2 5 mph 1023mb 60f 65f
9:30 3
mph
1023mb 60f 65f
9:24 3
mph
1023mb 60f 65f
9:18 3 5 mph 1023.1mb 60f 65f
9:12 5 6 mph 1023.1mb 60f 64f
9:06 3 5 mph 1023.1mb 60f 64f
9:00 5
mph
1023mb 60f 63f
8:54 5 6 mph 1023mb 60f 62f
8:48 5 6 mph 1023mb 60f 61f
8:42 5
mph
1023mb 60f 60f
8:36 3 5 mph 1023.1mb 59f 60f
8:30 2
mph
1023mb 60f 60f
8:24 2
mph
1023mb 60f 59f
8:18 2 3 mph 1023mb 60f 58f
8:12 3 7 mph 1023mb 60f 58f
8:06 7 8 mph 1023mb 59f 57f
8:00 8 9 mph 1022.9mb 60f 58f
7:54 9 10 mph 1022.9mb 60f 57f
7:48 7 8 mph 1022.9mb 60f 56f
7:42 7 8 mph 1022.8mb 59f 56f
7:36 6 7 mph 1022.8mb 59f 56f
7:30 5 6 mph 1022.8mb 59f 56f
7:24 5
mph
1022.8mb 59f 56f
7:18 3 5 mph 1022.9mb 59f 55f
7:12 3 6 mph 1022.9mb 59f 55f
7:06 5 9 mph 1022.8mb 59f 55f
7:00 9 10 mph 1022.7mb 60f 56f
6:54 9 10 mph 1022.7mb 59f 56f
6:48 9 10 mph 1022.7mb 59f 55f
6:42 9 11 mph 1022.7mb 60f 55f
6:36 8 9 mph 1022.6mb 60f 55f
6:30 8
mph
1022.6mb 60f 55f
6:24 7
mph
1022.6mb 60f 55f
6:18 7
mph
1022.6mb 60f 55f
6:12 3 6 mph 1022.6mb 60f 55f
6:06 5 6 mph 1022.6mb 60f 55f
6:00 5 6 mph 1022.6mb 60f 55f
5:54 5 6 mph 1022.6mb 60f 55f
5:48 6 7 mph 1022.6mb 60f 55f
5:42 3 5 mph 1022.5mb 60f 55f
5:36 5
mph
1022.5mb 61f 55f
5:30 5 6 mph 1022.4mb 61f 54f
5:24 6
mph
1022.5mb 61f 54f
5:18 5 6 mph 1022.4mb 61f 55f
5:12 5 6 mph 1022.4mb 61f 55f
5:06 2 3 mph 1022.4mb 61f 55f
5:00 2 3 mph 1022.4mb 61f 55f
4:54 3 5 mph 1022.4mb 61f 55f
4:48 3 6 mph 1022.4mb 61f 55f
4:42 5 6 mph 1022.4mb 61f 54f
4:36 5 7 mph 1022.4mb 61f 55f
4:30 6 7 mph 1022.3mb 61f 54f
4:24 6 7 mph 1022.3mb 61f 54f
4:18 3 5 mph 1022.3mb 61f 55f
4:12 5 6 mph 1022.2mb 61f 55f
4:06 5 7 mph 1022.3mb 61f 55f
4:00 7
mph
1022.2mb 61f 56f
3:54 6 7 mph 1022.2mb 61f 56f
3:48 6 7 mph 1022.2mb 62f 56f
3:42 6
mph
1022.2mb 61f 56f
3:36 5 6 mph 1022.1mb 62f 56f
3:30 6
mph
1022.2mb 62f 55f
3:24 6 7 mph 1022.2mb 62f 55f
3:18 7
mph
1022.2mb 62f 54f
3:12 7
mph
1022.2mb 62f 55f
3:06 5 6 mph 1022.2mb 62f 55f
3:00 5 6 mph 1022.2mb 62f 55f
2:54 6
mph
1022.2mb 62f 55f
2:48 6
mph
1022.1mb 62f 55f
2:42 6
mph
1022.1mb 62f 54f
2:36 3 5 mph 1022.1mb 62f 54f
2:30 5 6 mph 1022.2mb 62f 54f
2:24 5 6 mph 1022.3mb 62f 54f
2:18 3
mph
1022.3mb 61f 54f
2:12 3 5 mph 1022.2mb 61f 53f
2:06 3 5 mph 1022.2mb 62f 53f
2:00 3
mph
1022.2mb 62f 54f
1:54 3 6 mph 1022.2mb 61f 54f
1:48 6
mph
1022.2mb 61f 55f
1:42 6
mph
1022.2mb 61f 55f
1:36 3 5 mph 1022.2mb 61f 56f
1:30 3 5 mph 1022.3mb 61f 56f
1:24 2 3 mph 1022.3mb 62f 56f
1:18 3 5 mph 1022.3mb 62f 56f
1:12 3 6 mph 1022.3mb 62f 56f
1:06 6
mph
1022.3mb 62f 56f
1:00 6 8 mph 1022.4mb 62f 55f
12:54 7 8 mph 1022.4mb 62f 56f
12:48 5 6 mph 1022.4mb 62f 55f
12:42 2 3 mph 1022.5mb 62f 55f
12:36 3 6 mph 1022.5mb 62f 54f
12:30 5 6 mph 1022.5mb 61f 54f
12:24 6 7 mph 1022.5mb 61f 55f
12:18 6
mph
1022.6mb 61f 55f
12:12 3 6 mph 1022.6mb 62f 55f
12:06 5 6 mph 1022.6mb 62f 56f
12:00 6
mph
1022.6mb 61f 57f
Di 08/23 11:54 5 6 mph 1022.7mb 61f 58f
11:48 5
mph
1022.7mb 61f -
11:42 3 5 mph 1022.8mb 61f -
11:36 5 6 mph 1022.8mb 61f -
11:30 5 6 mph 1022.8mb 61f 59f
11:24 5
mph
1022.9mb 61f 59f
11:18  -  5 mph 1022.9mb 61f 59f
11:12  -  3 mph 1022.9mb 61f 60f
11:06  -  1 mph 1022.9mb 61f 60f
11:00 1 2 mph 1022.8mb 61f 60f
10:54  -  3 mph 1022.8mb 61f 60f
10:48 3
mph
1022.8mb 61f 60f
10:42 2 3 mph 1022.7mb 61f 60f
10:36 2 3 mph 1022.7mb 61f 60f
10:30 2 3 mph 1022.8mb 61f 60f
10:24 2 5 mph 1022.7mb 61f 60f
10:18  -  1 mph 1022.8mb 61f 60f
10:12 1 2 mph 1022.8mb 61f 60f
10:06 1 2 mph 1022.7mb 61f 60f
10:00 3 5 mph 1022.7mb 61f 60f
9:54 3 6 mph 1022.7mb 61f 60f
9:48 5 7 mph 1022.7mb 61f 60f
9:42 3 5 mph 1022.7mb 61f 60f
9:36 3 6 mph 1022.7mb 61f 60f
9:30 5 6 mph 1022.6mb 61f 60f
9:24 3 8 mph 1022.6mb 61f 61f
9:18 6 8 mph 1022.6mb - 61f
9:12 2 5 mph 1022.6mb - 61f
9:06 3 7 mph 1022.6mb - 61f
9:00 3 9 mph 1022.5mb 61f 61f
8:54 7 10 mph 1022.5mb 61f 61f
8:48 7 10 mph 1022.4mb 61f 62f
8:42 7 14 mph 1022.3mb 61f 62f
8:36 7 13 mph 1022.2mb 61f 62f
8:30 13 16 mph 1022.1mb 61f 63f
8:24 11 13 mph 1022.1mb 61f 63f
8:18 11 14 mph 1022mb 61f 63f
8:12 6 13 mph 1022.1mb 61f 64f
8:06 8 13 mph 1022mb 61f 64f
8:00 11 14 mph 1022mb 61f 64f
7:54 6 9 mph 1022mb 61f 64f
7:48 6 9 mph 1022mb 61f 65f
7:42 7 13 mph 1022mb 61f 65f
7:36 9 13 mph 1021.9mb 60f 65f
7:30 9 13 mph 1021.9mb 61f 65f
7:24 8 16 mph 1021.9mb 61f 65f
7:18 11 15 mph 1021.9mb 60f 65f
7:12 14 20 mph 1021.8mb 61f 66f
7:06 15 18 mph 1021.8mb 60f 66f
7:00 15 17 mph 1021.7mb 60f 66f
6:54 11 16 mph 1021.8mb 60f 66f
6:48 10 16 mph 1021.8mb 60f 67f
6:42 11 17 mph 1021.7mb 59f 67f
6:36 13 15 mph 1021.7mb 59f 68f
6:30 13 15 mph 1021.7mb 59f 67f
6:24 15 17 mph 1021.7mb 59f 67f
6:18  -  mph 1021.7mb 59f 68f
6:12  -  mph 1021.7mb 59f 68f
6:06  -  mph 1021.8mb 59f 68f
6:00  -  mph 1021.8mb 60f 68f
5:54  -  mph 1021.8mb 60f 69f
5:48 11 16 mph 1021.9mb 60f 68f
5:42 11 15 mph 1021.9mb 60f 69f
5:36 16 18 mph 1021.9mb 60f 69f
5:30  -  mph 1021.8mb 59f 69f
5:24  -  mph 1021.8mb 60f 69f
5:18  -  mph 1021.7mb 60f 69f
5:12  -  mph 1021.8mb 60f 68f
5:06  -  mph 1021.8mb 60f 69f
5:00 14 16 mph 1021.9mb 60f 69f
4:54 10 17 mph 1021.9mb 60f 69f
4:48 13 17 mph - 60f -
4:42 14 17 mph - 60f -
4:36 9 14 mph - 60f -
4:30 13 17 mph 1022mb 60f 68f
4:24 16 20 mph 1022mb 61f 67f
4:18  -  mph 1022.1mb 60f 67f
4:12  -  mph 1022.2mb 61f 67f
4:06  -  mph 1022.3mb 61f 67f
4:00 13 16 mph 1022.3mb 61f 67f
3:54 15 17 mph 1022.3mb 61f 67f
3:48  -  mph - 61f 67f
3:42  -  mph - 61f 67f
3:36  -  mph - 61f 67f
3:30 14 17 mph 1022.3mb 61f 67f
3:24 15 17 mph 1022.3mb 61f 67f
3:18 15 17 mph 1022.3mb 61f 68f
3:12 14 16 mph 1022.3mb 61f 67f
3:06 11 14 mph 1022.3mb 61f 67f
3:00  -  mph 1022.3mb 60f 67f
2:54  -  mph 1022.3mb 61f 68f
2:48 13 16 mph - 60f 68f
2:42 13 15 mph - 60f 67f
2:36 14 16 mph - 61f 68f
2:30 11 16 mph 1022.4mb 60f 67f
2:24 14 15 mph 1022.4mb 61f 67f
2:18 14 16 mph 1022.4mb 61f 68f
2:12 14 15 mph 1022.4mb 61f 68f
2:06 14 16 mph 1022.4mb 60f 69f
2:00 11 15 mph 1022.5mb 60f 69f
1:54 13 15 mph 1022.5mb 61f 69f
1:48 11 14 mph 1022.6mb 61f 69f
1:42 13 14 mph 1022.6mb 61f 68f
1:36 11 13 mph 1022.6mb 61f 68f
1:30 11 15 mph 1022.6mb 61f 68f